User: anonymous   Login
Location: *
(33.8649°S, 62.1526°E)
Time: 06:28:21
(UTC+00:00)
Language:

Cosmos 407 Rocket - Orbit

View from above orbital plane
View from above orbital plane
View from above satellite
View from above satellite

Ground track
Ground track

The orbit data is extracted from the following two-line orbital elements,

1 05175U 71035B   21101.90650082  .00000027  00000-0  17642-4 0  9992
2 05175  74.0485 162.6100 0029511  23.5450 336.7047 14.38022208615160
Epoch (UTC): 11 April 2021 21:45:21
Eccentricity: 0.0029511
inclination: 74.0485°
perigee height: 744 km
apogee height: 786 km
right ascension of ascending node: 162.6100°
argument of perigee: 23.5450°
revolutions per day: 14.38022208
mean anomaly at epoch: 336.7047°
orbit number at epoch: 61516

The dashed part of the orbit path shows where the satellite is in the earth's shadow,  

DLR